Weather History for Tampa Macdill AFB, FL

Change the Weather History Date:

Friday, December 14, 2012

  Actual Average Record
Temperature  
Mean Temperature 62 °F -  
Max Temperature 70 °F 69 °F 84 °F (2001)
Min Temperature 54 °F 52 °F 31 °F (2010)
Degree Days  
Heating Degree Days 3    
Growing Degree Days 12 (Base 50)    
Moisture  
Dew Point 56 °F    
Average Humidity 90    
Maximum Humidity 100    
Minimum Humidity 69    
Precipitation  
Precipitation 0.00 in - - ()
Sea Level Pressure  
Sea Level Pressure 30.19 in    
Wind  
Wind Speed 9 mph (NE)    
Max Wind Speed 15 mph    
Max Gust Speed 17 mph    
Visibility 10 miles    
Events      
Averages and records for this station are not official NWS values.
T = Trace of Precipitation, MM = Missing Value Source: NWS Daily Summary

Daily Weather History Graph

Daily Weather History Graph

Search for Another Location

Airport:

Trip Planner

Search our weather history database for the weather conditions in past years. The results will help you decide how hot, cold, wet, or windy it might be!

Date:

Astronomy

Dec. 14, 2012 Rise Set
Actual Time 7:13 AM EST 5:36 PM EST
Civil Twilight 6:47 AM EST 6:02 PM EST
Nautical Twilight 6:18 AM EST 6:31 PM EST
Astronomical Twilight 5:49 AM EST 7:00 PM EST
Moon 8:21 AM EST (12/14) 7:22 PM EST (12/14)
Length of Visible Light 11h 15m
Length of Day
10h 23m
Waxing Crescent, 3% of the Moon is Illuminated
Dec 14
Waxing Crescent
Dec 20
First Quarter
Dec 28
Full
Jan 4
Last Quarter
Jan 11
New

Hourly Weather History & Observations

Time (EST) Temp. Dew Point Humidity Pressure Visibility Wind Dir Wind Speed Gust Speed Precip Events Conditions
12:55 AM 55.0 °F 52.9 °F 92% 30.20 in 10.0 mi NNE 9.2 mph - N/A   Overcast
1:31 AM 55.4 °F 53.6 °F 94% 30.21 in 10.0 mi NE 8.1 mph - N/A   Overcast
1:55 AM 54.5 °F 52.9 °F 94% 30.20 in 10.0 mi NE 8.1 mph - N/A   Overcast
2:55 AM 54.7 °F 53.6 °F 96% 30.18 in 10.0 mi NNE 4.6 mph - N/A   Overcast
3:55 AM 54.7 °F 53.8 °F 97% 30.18 in 10.0 mi NE 9.2 mph - N/A   Overcast
4:05 AM 55.4 °F 53.6 °F 94% 30.18 in 10.0 mi NE 10.4 mph - N/A   Overcast
4:55 AM 54.5 °F 54.0 °F 98% 30.18 in 10.0 mi NE 8.1 mph - N/A   Overcast
5:27 AM 55.4 °F 53.6 °F 94% 30.18 in 10.0 mi NE 9.2 mph - N/A   Overcast
5:55 AM 54.5 °F 54.1 °F 99% 30.18 in 10.0 mi NE 6.9 mph - N/A   Overcast
6:15 AM 55.4 °F 53.6 °F 94% 30.18 in 10.0 mi NE 4.6 mph - N/A   Overcast
6:35 AM 55.4 °F 55.4 °F 100% 30.19 in 10.0 mi NE 9.2 mph - N/A   Overcast
6:55 AM 55.0 °F 54.9 °F 99% 30.19 in 10.0 mi ENE 10.4 mph 17.3 mph N/A   Overcast
7:55 AM 55.0 °F 54.7 °F 99% 30.20 in 10.0 mi ENE 15.0 mph - N/A   Overcast
8:45 AM 55.4 °F 55.4 °F 100% 30.22 in 10.0 mi ENE 10.4 mph - N/A   Overcast
8:55 AM 55.9 °F 55.6 °F 99% 30.23 in 10.0 mi NE 9.2 mph - N/A   Overcast
9:36 AM 57.2 °F 57.2 °F 100% 30.24 in 10.0 mi NE 9.2 mph - N/A   Overcast
9:55 AM 58.3 °F 57.0 °F 96% 30.24 in 10.0 mi NE 10.4 mph - N/A   Overcast
10:40 AM 60.8 °F 57.2 °F 88% 30.23 in 10.0 mi ENE 13.8 mph - N/A   Overcast
10:55 AM 63.9 °F 57.6 °F 80% 30.23 in 10.0 mi ENE 12.7 mph - N/A   Overcast
11:00 AM 64.4 °F 57.2 °F 77% 30.24 in 10.0 mi NE 10.4 mph - N/A   Overcast
11:35 AM 64.4 °F 57.2 °F 77% 30.23 in 10.0 mi East 12.7 mph - N/A   Scattered Clouds
11:55 AM 64.4 °F 57.0 °F 77% 30.23 in 10.0 mi ENE 11.5 mph - N/A   Clear
12:55 PM 66.6 °F 57.7 °F 73% 30.19 in 10.0 mi Variable 5.8 mph - N/A   Clear
1:55 PM 68.9 °F 58.8 °F 70% 30.16 in 10.0 mi ENE 9.2 mph - N/A   Clear
2:55 PM 70.3 °F 59.7 °F 69% 30.14 in 10.0 mi ENE 11.5 mph - N/A   Clear
3:55 PM 68.5 °F 59.0 °F 72% 30.15 in 10.0 mi East 8.1 mph - N/A   Clear
4:55 PM 65.7 °F 58.1 °F 77% 30.13 in 10.0 mi ENE 13.8 mph - N/A   Clear
5:55 PM 60.1 °F 56.3 °F 87% 30.13 in 10.0 mi NNE 3.5 mph - N/A   Clear
6:55 PM 58.1 °F 56.1 °F 93% 30.15 in 10.0 mi North 3.5 mph - N/A   Clear
7:55 PM 57.9 °F 56.8 °F 96% 30.18 in 10.0 mi North 5.8 mph - N/A   Clear
8:55 PM 58.8 °F 58.3 °F 98% 30.18 in 10.0 mi NE 4.6 mph - N/A   Clear
9:55 PM 56.7 °F 56.3 °F 99% 30.16 in 10.0 mi ENE 8.1 mph - N/A   Clear
10:55 PM 57.0 °F 56.8 °F 99% 30.14 in 10.0 mi NE 5.8 mph - N/A   Clear
11:55 PM 56.3 °F 56.1 °F 99% 30.14 in 10.0 mi NNE 3.5 mph - N/A   Clear